| time (UTC) | temp C | wind direction | speed KPH | gust KPH | rain 1hr cm | rain 24hr cm | rain mn cm | humidity % | barometer mb |
| 20260510231054 | 20 | 185 | 14.5 | 22.5 | 0.00 | 0.18 | 0.18 | 44 | 1018.9 |
| 20260510230554 | 20 | 185 | 14.5 | 25.7 | 0.00 | 0.18 | 0.18 | 41 | 1018.8 |
| 20260510230053 | 20 | 185 | 17.7 | 32.2 | 0.00 | 0.18 | 0.18 | 43 | 1018.8 |
| 20260510225553 | 20 | 185 | 19.3 | 32.2 | 0.00 | 0.18 | 0.18 | 43 | 1018.8 |
| 20260510225053 | 20 | 185 | 11.3 | 27.4 | 0.00 | 0.18 | 0.18 | 43 | 1018.8 |
| 20260510224603 | 20 | 185 | 17.7 | 27.4 | 0.00 | 0.18 | 0.18 | 42 | 1018.7 |
| 20260510224053 | 20 | 185 | 16.1 | 27.4 | 0.00 | 0.18 | 0.18 | 43 | 1018.7 |
| 20260510223557 | 20 | 185 | 17.7 | 27.4 | 0.00 | 0.18 | 0.18 | 45 | 1018.6 |
| 20260510223052 | 19 | 185 | 17.7 | 25.7 | 0.00 | 0.18 | 0.18 | 44 | 1018.5 |
| 20260510222553 | 19 | 185 | 17.7 | 25.7 | 0.00 | 0.18 | 0.18 | 42 | 1018.5 |
| 20260510222053 | 19 | 185 | 14.5 | 25.7 | 0.00 | 0.18 | 0.18 | 42 | 1018.5 |
| 20260510221558 | 19 | 185 | 17.7 | 27.4 | 0.00 | 0.18 | 0.18 | 46 | 1018.5 |
| 20260510221055 | 19 | 185 | 17.7 | 29.0 | 0.00 | 0.18 | 0.18 | 45 | 1018.6 |
| 20260510220553 | 18 | 185 | 19.3 | 32.2 | 0.00 | 0.18 | 0.18 | 48 | 1018.8 |
| 20260510220052 | 18 | 185 | 17.7 | 32.2 | 0.03 | 0.18 | 0.18 | 49 | 1018.8 |
| 20260510215551 | 18 | 185 | 14.5 | 27.4 | 0.05 | 0.18 | 0.18 | 51 | 1018.8 |
| 20260510215052 | 18 | 185 | 12.9 | 20.9 | 0.10 | 0.18 | 0.18 | 48 | 1018.9 |
| 20260510214551 | 18 | 185 | 8.0 | 16.1 | 0.15 | 0.18 | 0.18 | 53 | 1018.9 |
| 20260510214051 | 18 | 185 | 9.7 | 16.1 | 0.18 | 0.18 | 0.18 | 58 | 1018.9 |
| 20260510213553 | 17 | 185 | 9.7 | 19.3 | 0.18 | 0.18 | 0.18 | 60 | 1018.9 |
| 20260510213104 | 17 | 185 | 11.3 | 20.9 | 0.18 | 0.18 | 0.18 | 59 | 1018.9 |
| 20260510212550 | 17 | 185 | 9.7 | 17.7 | 0.18 | 0.18 | 0.18 | 62 | 1019.0 |
| 20260510212051 | 16 | 185 | 6.4 | 16.1 | 0.18 | 0.18 | 0.18 | 65 | 1018.9 |
| 20260510211627 | 16 | 185 | 9.7 | 16.1 | 0.18 | 0.18 | 0.18 | 63 | 1018.9 |
| 20260510211048 | 15 | 185 | 11.3 | 16.1 | 0.18 | 0.18 | 0.18 | 63 | 1018.8 |
| 20260510210551 | 15 | 185 | 8.0 | 11.3 | 0.18 | 0.18 | 0.18 | 61 | 1019.0 |
| 20260510210047 | 15 | 185 | 4.8 | 12.9 | 0.15 | 0.15 | 0.15 | 57 | 1019.2 |
| 20260510205549 | 15 | 185 | 9.7 | 16.1 | 0.13 | 0.13 | 0.13 | 53 | 1019.2 |
| 20260510205046 | 16 | 185 | 8.0 | 24.1 | 0.08 | 0.08 | 0.08 | 50 | 1019.1 |
| 20260510204544 | 17 | 185 | 11.3 | 24.1 | 0.03 | 0.03 | 0.03 | 46 | 1018.9 |
| 20260510204042 | 18 | 185 | 16.1 | 25.7 | 0.00 | 0.00 | 0.00 | 43 | 1018.7 |
| 20260510203542 | 18 | 185 | 14.5 | 27.4 | 0.00 | 0.00 | 0.00 | 38 | 1018.5 |
| 20260510203041 | 19 | 185 | 20.9 | 27.4 | 0.00 | 0.00 | 0.00 | 36 | 1018.5 |
| 20260510202543 | 19 | 185 | 19.3 | 29.0 | 0.00 | 0.00 | 0.00 | 35 | 1018.2 |
| 20260510202042 | 20 | 185 | 19.3 | 29.0 | 0.00 | 0.00 | 0.00 | 35 | 1018.1 |
| 20260510201539 | 20 | 185 | 19.3 | 29.0 | 0.00 | 0.00 | 0.00 | 34 | 1017.9 |
| 20260510201038 | 20 | 185 | 19.3 | 25.7 | 0.00 | 0.00 | 0.00 | 33 | 1017.8 |
| 20260510200538 | 20 | 185 | 16.1 | 24.1 | 0.00 | 0.00 | 0.00 | 32 | 1017.8 |
| 20260510200040 | 21 | 185 | 17.7 | 24.1 | 0.00 | 0.00 | 0.00 | 32 | 1017.8 |
| 20260510195537 | 21 | 185 | 16.1 | 22.5 | 0.00 | 0.00 | 0.00 | 31 | 1017.7 |
| 20260510195038 | 21 | 185 | 14.5 | 20.9 | 0.00 | 0.00 | 0.00 | 30 | 1017.6 |
| 20260510194544 | 21 | 185 | 6.4 | 24.1 | 0.00 | 0.00 | 0.00 | 30 | 1017.6 |
| 20260510194037 | 22 | 185 | 11.3 | 24.1 | 0.00 | 0.00 | 0.00 | 29 | 1017.4 |
| 20260510193539 | 23 | 185 | 14.5 | 32.2 | 0.00 | 0.00 | 0.00 | 29 | 1017.5 |
| 20260510193038 | 22 | 185 | 20.9 | 35.4 | 0.00 | 0.00 | 0.00 | 29 | 1017.3 |
| 20260510192538 | 22 | 185 | 17.7 | 35.4 | 0.00 | 0.00 | 0.00 | 30 | 1017.5 |
| 20260510192036 | 22 | 185 | 16.1 | 22.5 | 0.00 | 0.00 | 0.00 | 30 | 1017.5 |
| 20260510191556 | 22 | 185 | 6.4 | 19.3 | 0.00 | 0.00 | 0.00 | 29 | 1017.6 |
| 20260510191036 | 22 | 185 | 6.4 | 24.1 | 0.00 | 0.00 | 0.00 | 28 | 1017.6 |
| 20260510190535 | 22 | 185 | 11.3 | 24.1 | 0.00 | 0.00 | 0.00 | 28 | 1017.6 |
| 20260510190042 | 22 | 185 | 12.9 | 22.5 | 0.00 | 0.00 | 0.00 | 28 | 1017.6 |
| 20260510185538 | 22 | 185 | 11.3 | 24.1 | 0.00 | 0.00 | 0.00 | 27 | 1017.6 |
| 20260510185035 | 23 | 185 | 17.7 | 24.1 | 0.00 | 0.00 | 0.00 | 27 | 1017.6 |
| 20260510184533 | 22 | 185 | 0.0 | 17.7 | 0.00 | 0.00 | 0.00 | 28 | 1017.5 |
| 20260510184036 | 22 | 185 | 9.7 | 20.9 | 0.00 | 0.00 | 0.00 | 29 | 1017.7 |
| 20260510183533 | 22 | 185 | 9.7 | 20.9 | 0.00 | 0.00 | 0.00 | 28 | 1017.6 |
| 20260510183033 | 22 | 185 | 3.2 | 24.1 | 0.00 | 0.00 | 0.00 | 28 | 1017.6 |
| 20260510182531 | 22 | 185 | 12.9 | 24.1 | 0.00 | 0.00 | 0.00 | 28 | 1017.6 |
| 20260510182031 | 22 | 185 | 14.5 | 24.1 | 0.00 | 0.00 | 0.00 | 29 | 1017.6 |
| 20260510181531 | 22 | 185 | 1.6 | 16.1 | 0.00 | 0.00 | 0.00 | 30 | 1017.5 |
| 20260510181029 | 22 | 185 | 8.0 | 19.3 | 0.00 | 0.00 | 0.00 | 30 | 1017.6 |
| 20260510180532 | 21 | 185 | 0.0 | 12.9 | 0.00 | 0.00 | 0.00 | 30 | 1017.7 |
| 20260510180033 | 21 | 185 | 6.4 | 14.5 | 0.00 | 0.00 | 0.00 | 30 | 1017.8 |
| 20260510175528 | 21 | 185 | 6.4 | 20.9 | 0.00 | 0.00 | 0.00 | 30 | 1017.7 |
| 20260510175032 | 21 | 185 | 6.4 | 22.5 | 0.00 | 0.00 | 0.00 | 31 | 1017.7 |
| 20260510174528 | 21 | 185 | 9.7 | 22.5 | 0.00 | 0.00 | 0.00 | 31 | 1017.6 |
| 20260510174028 | 21 | 185 | 12.9 | 19.3 | 0.00 | 0.00 | 0.00 | 31 | 1017.6 |
| 20260510173529 | 21 | 185 | 3.2 | 16.1 | 0.00 | 0.00 | 0.00 | 31 | 1017.6 |
| 20260510173026 | 21 | 185 | 8.0 | 22.5 | 0.00 | 0.00 | 0.00 | 32 | 1017.6 |
| 20260510172524 | 21 | 185 | 11.3 | 22.5 | 0.00 | 0.00 | 0.00 | 33 | 1017.7 |
| 20260510172027 | 20 | 185 | 6.4 | 19.3 | 0.00 | 0.00 | 0.00 | 33 | 1017.7 |
| 20260510171524 | 20 | 185 | 11.3 | 22.5 | 0.00 | 0.00 | 0.00 | 34 | 1017.6 |
| 20260510171024 | 20 | 185 | 12.9 | 24.1 | 0.00 | 0.00 | 0.00 | 34 | 1017.6 |
| 20260510170526 | 20 | 185 | 12.9 | 24.1 | 0.00 | 0.00 | 0.00 | 34 | 1017.6 |
| 20260510170028 | 20 | 185 | 9.7 | 20.9 | 0.00 | 0.00 | 0.00 | 34 | 1017.6 |
| 20260510165524 | 20 | 185 | 12.9 | 20.9 | 0.00 | 0.00 | 0.00 | 35 | 1017.7 |
| 20260510165024 | 20 | 185 | 8.0 | 19.3 | 0.00 | 0.00 | 0.00 | 35 | 1017.6 |
| 20260510164523 | 20 | 185 | 12.9 | 20.9 | 0.00 | 0.00 | 0.00 | 36 | 1017.7 |
| 20260510164023 | 19 | 185 | 12.9 | 24.1 | 0.00 | 0.00 | 0.00 | 36 | 1017.6 |
| 20260510163523 | 19 | 185 | 14.5 | 27.4 | 0.00 | 0.00 | 0.00 | 37 | 1017.6 |
| 20260510163023 | 19 | 185 | 14.5 | 27.4 | 0.00 | 0.00 | 0.00 | 37 | 1017.5 |
| 20260510162522 | 19 | 185 | 12.9 | 20.9 | 0.00 | 0.00 | 0.00 | 36 | 1017.6 |
| 20260510162022 | 20 | 185 | 12.9 | 24.1 | 0.00 | 0.00 | 0.00 | 36 | 1017.5 |
| 20260510161524 | 20 | 185 | 16.1 | 24.1 | 0.00 | 0.00 | 0.00 | 35 | 1017.4 |
| 20260510161022 | 20 | 185 | 11.3 | 24.1 | 0.00 | 0.00 | 0.00 | 33 | 1017.4 |
| 20260510160524 | 20 | 185 | 9.7 | 24.1 | 0.00 | 0.00 | 0.00 | 34 | 1017.3 |
| 20260510160021 | 20 | 185 | 1.6 | 12.9 | 0.00 | 0.00 | 0.00 | 29 | 1017.3 |
| 20260510155520 | 20 | 185 | 4.8 | 14.5 | 0.00 | 0.00 | 0.00 | 29 | 1017.3 |
| 20260510155020 | 20 | 185 | 8.0 | 14.5 | 0.00 | 0.00 | 0.00 | 29 | 1017.3 |
| 20260510154519 | 20 | 185 | 3.2 | 16.1 | 0.00 | 0.00 | 0.00 | 30 | 1017.2 |
| 20260510154025 | 20 | 185 | 8.0 | 16.1 | 0.00 | 0.00 | 0.00 | 30 | 1017.3 |
| 20260510153520 | 20 | 185 | 3.2 | 14.5 | 0.00 | 0.00 | 0.00 | 31 | 1017.3 |
| 20260510153018 | 19 | 185 | 8.0 | 14.5 | 0.00 | 0.00 | 0.00 | 31 | 1017.4 |
| 20260510152515 | 19 | 185 | 8.0 | 12.9 | 0.00 | 0.00 | 0.00 | 31 | 1017.3 |
| 20260510152015 | 19 | 185 | 6.4 | 16.1 | 0.00 | 0.00 | 0.00 | 32 | 1017.3 |
| 20260510151513 | 19 | 185 | 6.4 | 16.1 | 0.00 | 0.00 | 0.00 | 32 | 1017.3 |
| 20260510151014 | 18 | 185 | 6.4 | 12.9 | 0.00 | 0.00 | 0.00 | 32 | 1017.2 |
| 20260510150514 | 18 | 185 | 4.8 | 12.9 | 0.00 | 0.00 | 0.00 | 33 | 1017.2 |
| 20260510150013 | 19 | 185 | 8.0 | 12.9 | 0.00 | 0.00 | 0.00 | 32 | 1017.3 |
| 20260510145516 | 19 | 185 | 8.0 | 14.5 | 0.00 | 0.00 | 0.00 | 33 | 1017.2 |
| 20260510145012 | 18 | 185 | 9.7 | 14.5 | 0.00 | 0.00 | 0.00 | 33 | 1017.1 |
| 20260510144526 | 18 | 185 | 9.7 | 16.1 | 0.00 | 0.00 | 0.00 | 34 | 1017.1 |
| 20260510144013 | 18 | 185 | 9.7 | 19.3 | 0.00 | 0.00 | 0.00 | 34 | 1017.1 |
| 20260510143511 | 18 | 185 | 12.9 | 19.3 | 0.00 | 0.00 | 0.00 | 34 | 1017.1 |
| 20260510143024 | 17 | 185 | 12.9 | 19.3 | 0.00 | 0.00 | 0.00 | 34 | 1017.1 |
| 20260510142513 | 17 | 185 | 14.5 | 19.3 | 0.00 | 0.00 | 0.00 | 34 | 1017.0 |
| 20260510142011 | 17 | 185 | 11.3 | 17.7 | 0.00 | 0.00 | 0.00 | 34 | 1017.0 |
| 20260510141511 | 17 | 185 | 12.9 | 17.7 | 0.00 | 0.00 | 0.00 | 34 | 1017.0 |
| 20260510141011 | 17 | 185 | 9.7 | 16.1 | 0.00 | 0.00 | 0.00 | 35 | 1017.0 |
| 20260510140510 | 17 | 185 | 11.3 | 17.7 | 0.00 | 0.00 | 0.00 | 34 | 1016.8 |
| 20260510140011 | 17 | 185 | 11.3 | 17.7 | 0.00 | 0.00 | 0.00 | 35 | 1016.8 |
| 20260510135511 | 17 | 185 | 8.0 | 14.5 | 0.00 | 0.00 | 0.00 | 35 | 1016.9 |
| 20260510135011 | 16 | 185 | 8.0 | 14.5 | 0.00 | 0.00 | 0.00 | 36 | 1016.9 |
| 20260510134511 | 16 | 185 | 9.7 | 14.5 | 0.00 | 0.00 | 0.00 | 37 | 1016.8 |
| 20260510134011 | 16 | 185 | 9.7 | 14.5 | 0.00 | 0.00 | 0.00 | 38 | 1016.8 |
| 20260510133510 | 15 | 185 | 6.4 | 12.9 | 0.00 | 0.00 | 0.00 | 39 | 1016.8 |
| 20260510133009 | 15 | 185 | 8.0 | 12.9 | 0.00 | 0.00 | 0.00 | 38 | 1016.7 |
| 20260510132509 | 14 | 185 | 1.6 | 9.7 | 0.00 | 0.00 | 0.00 | 39 | 1016.7 |
| 20260510132009 | 14 | 185 | 0.0 | 1.6 | 0.00 | 0.00 | 0.00 | 39 | 1016.6 |
| 20260510131508 | 14 | 185 | 0.0 | 6.4 | 0.00 | 0.00 | 0.00 | 38 | 1016.8 |
| 20260510131013 | 14 | 185 | 1.6 | 6.4 | 0.00 | 0.00 | 0.00 | 37 | 1016.7 |
| 20260510130508 | 14 | 185 | 4.8 | 11.3 | 0.00 | 0.00 | 0.00 | 37 | 1016.6 |
| 20260510130012 | 13 | 185 | 4.8 | 11.3 | 0.00 | 0.00 | 0.00 | 38 | 1016.7 |
| 20260510125508 | 13 | 185 | 0.0 | 6.4 | 0.00 | 0.00 | 0.00 | 40 | 1016.6 |
| 20260510125007 | 12 | 185 | 0.0 | 6.4 | 0.00 | 0.00 | 0.00 | 41 | 1016.7 |
| 20260510124507 | 13 | 185 | 0.0 | 3.2 | 0.00 | 0.00 | 0.00 | 40 | 1016.6 |
| 20260510124006 | 13 | 185 | 3.2 | 4.8 | 0.00 | 0.00 | 0.00 | 39 | 1016.6 |
| 20260510123509 | 13 | 185 | 3.2 | 6.4 | 0.00 | 0.00 | 0.00 | 39 | 1016.6 |
| 20260510123005 | 13 | 185 | 4.8 | 6.4 | 0.00 | 0.00 | 0.00 | 38 | 1016.7 |
| 20260510122503 | 14 | 185 | 3.2 | 4.8 | 0.00 | 0.00 | 0.00 | 36 | 1016.6 |
| 20260510122003 | 15 | 185 | 3.2 | 6.4 | 0.00 | 0.00 | 0.00 | 36 | 1016.7 |
| 20260510121505 | 15 | 185 | 4.8 | 8.0 | 0.00 | 0.00 | 0.00 | 35 | 1016.7 |
| 20260510121004 | 15 | 185 | 4.8 | 12.9 | 0.00 | 0.00 | 0.00 | 34 | 1016.5 |
| 20260510120505 | 16 | 185 | 8.0 | 12.9 | 0.00 | 0.00 | 0.00 | 33 | 1016.4 |
| 20260510120005 | 16 | 185 | 6.4 | 12.9 | 0.00 | 0.00 | 0.00 | 32 | 1016.4 |
| 20260510115503 | 16 | 185 | 8.0 | 14.5 | 0.00 | 0.00 | 0.00 | 32 | 1016.4 |
| 20260510115001 | 16 | 185 | 8.0 | 17.7 | 0.00 | 0.00 | 0.00 | 31 | 1016.6 |
| 20260510114501 | 17 | 185 | 12.9 | 17.7 | 0.00 | 0.00 | 0.00 | 31 | 1016.7 |
| 20260510114000 | 17 | 185 | 8.0 | 16.1 | 0.00 | 0.00 | 0.00 | 30 | 1016.7 |
| 20260510113600 | 17 | 185 | 6.4 | 17.7 | 0.00 | 0.00 | 0.00 | 30 | 1016.8 |
| 20260510113104 | 17 | 185 | 3.2 | 17.7 | 0.00 | 0.00 | 0.00 | 29 | 1017.2 |
| 20260510112559 | 17 | 185 | 0.0 | 9.7 | 0.00 | 0.00 | 0.00 | 29 | 1017.4 |
| 20260510112059 | 17 | 185 | 0.0 | 11.3 | 0.00 | 0.00 | 0.00 | 29 | 1017.4 |
| 20260510111558 | 17 | 185 | 1.6 | 12.9 | 0.00 | 0.00 | 0.00 | 30 | 1017.3 |
| 20260510111059 | 17 | 185 | 4.8 | 12.9 | 0.00 | 0.00 | 0.00 | 30 | 1017.5 |
| 20260510110602 | 17 | 185 | 1.6 | 29.0 | 0.00 | 0.00 | 0.00 | 29 | 1017.8 |
| 20260510110057 | 17 | 185 | 6.4 | 43.5 | 0.00 | 0.00 | 0.00 | 29 | 1017.5 |
| 20260510105557 | 17 | 185 | 17.7 | 43.5 | 0.00 | 0.00 | 0.00 | 29 | 1017.5 |
| 20260510105056 | 17 | 185 | 19.3 | 33.8 | 0.00 | 0.00 | 0.00 | 28 | 1016.9 |
| 20260510104602 | 16 | 185 | 9.7 | 16.1 | 0.00 | 0.00 | 0.00 | 27 | 1016.8 |
| 20260510104054 | 16 | 185 | 0.0 | 11.3 | 0.00 | 0.00 | 0.00 | 26 | 1016.7 |
| 20260510103555 | 16 | 185 | 0.0 | 0.0 | 0.00 | 0.00 | 0.00 | 27 | 1016.3 |
| 20260510103053 | 16 | 185 | 0.0 | 1.6 | 0.00 | 0.00 | 0.00 | 26 | 1016.0 |
| 20260510102553 | 16 | 185 | 0.0 | 1.6 | 0.00 | 0.00 | 0.00 | 26 | 1015.9 |
| 20260510102052 | 16 | 185 | 0.0 | 0.0 | 0.00 | 0.00 | 0.00 | 26 | 1015.9 |
| 20260510101553 | 17 | 185 | 0.0 | 6.4 | 0.00 | 0.00 | 0.00 | 25 | 1016.0 |
| 20260510101053 | 17 | 185 | 0.0 | 12.9 | 0.00 | 0.00 | 0.00 | 26 | 1016.0 |
| 20260510100557 | 16 | 185 | 9.7 | 12.9 | 0.00 | 0.00 | 0.00 | 26 | 1016.1 |
| 20260510100053 | 16 | 185 | 0.0 | 0.0 | 0.00 | 0.00 | 0.00 | 27 | 1016.2 |
| 20260510095554 | 16 | 185 | 0.0 | 9.7 | 0.00 | 0.00 | 0.00 | 26 | 1016.1 |
| 20260510095052 | 17 | 185 | 0.0 | 11.3 | 0.00 | 0.00 | 0.00 | 25 | 1016.0 |
| 20260510094602 | 18 | 185 | 0.0 | 1.6 | 0.00 | 0.00 | 0.00 | 23 | 1015.9 |
| 20260510094056 | 18 | 185 | 0.0 | 25.7 | 0.00 | 0.00 | 0.00 | 23 | 1015.9 |
| 20260510093551 | 18 | 185 | 4.8 | 25.7 | 0.00 | 0.00 | 0.00 | 24 | 1015.8 |
| 20260510093111 | 17 | 185 | 9.7 | 30.6 | 0.00 | 0.00 | 0.00 | 27 | 1016.2 |
| 20260510092547 | 14 | 185 | 14.5 | 30.6 | 0.00 | 0.00 | 0.00 | 31 | 1016.6 |
| 20260510092045 | 13 | 185 | 4.8 | 11.3 | 0.00 | 0.00 | 0.00 | 29 | 1016.3 |
| 20260510091547 | 13 | 185 | 3.2 | 14.5 | 0.00 | 0.00 | 0.00 | 30 | 1016.3 |
| 20260510091047 | 12 | 185 | 4.8 | 14.5 | 0.00 | 0.00 | 0.00 | 31 | 1016.0 |
| 20260510090543 | 12 | 185 | 0.0 | 0.0 | 0.00 | 0.00 | 0.00 | 31 | 1016.3 |
| 20260510090043 | 12 | 185 | 0.0 | 0.0 | 0.00 | 0.00 | 0.00 | 31 | 1016.3 |
| 20260510085542 | 12 | 185 | 0.0 | 0.0 | 0.00 | 0.00 | 0.00 | 31 | 1016.1 |
| 20260510085041 | 11 | 185 | 0.0 | 0.0 | 0.00 | 0.00 | 0.00 | 31 | 1016.0 |
| 20260510084541 | 11 | 185 | 0.0 | 0.0 | 0.00 | 0.00 | 0.00 | 31 | 1015.8 |
| 20260510084042 | 11 | 185 | 0.0 | 0.0 | 0.00 | 0.00 | 0.00 | 32 | 1015.7 |
| 20260510083542 | 11 | 185 | 0.0 | 0.0 | 0.00 | 0.00 | 0.00 | 31 | 1015.6 |
| 20260510083037 | 11 | 185 | 0.0 | 0.0 | 0.00 | 0.00 | 0.00 | 31 | 1015.6 |
| 20260510082537 | 12 | 185 | 0.0 | 0.0 | 0.00 | 0.00 | 0.00 | 30 | 1015.5 |
| 20260510082037 | 12 | 185 | 0.0 | 0.0 | 0.00 | 0.00 | 0.00 | 29 | 1015.5 |
| 20260510081537 | 12 | 185 | 0.0 | 0.0 | 0.00 | 0.00 | 0.00 | 30 | 1015.4 |
| 20260510081037 | 11 | 185 | 0.0 | 11.3 | 0.00 | 0.00 | 0.00 | 30 | 1015.5 |
| 20260510080536 | 11 | 185 | 3.2 | 11.3 | 0.00 | 0.00 | 0.00 | 30 | 1015.5 |
| 20260510080040 | 12 | 185 | 0.0 | 0.0 | 0.00 | 0.00 | 0.00 | 30 | 1015.5 |
| 20260510075535 | 12 | 185 | 0.0 | 0.0 | 0.00 | 0.00 | 0.00 | 30 | 1015.4 |
| 20260510075038 | 12 | 185 | 0.0 | 0.0 | 0.00 | 0.00 | 0.00 | 29 | 1015.4 |
| 20260510074535 | 12 | 185 | 0.0 | 0.0 | 0.00 | 0.00 | 0.00 | 29 | 1015.5 |
| 20260510074036 | 12 | 185 | 0.0 | 0.0 | 0.00 | 0.00 | 0.00 | 29 | 1015.4 |
| 20260510073533 | 12 | 185 | 0.0 | 0.0 | 0.00 | 0.00 | 0.00 | 28 | 1015.4 |
| 20260510073041 | 12 | 185 | 0.0 | 0.0 | 0.00 | 0.00 | 0.00 | 28 | 1015.4 |
| 20260510072531 | 12 | 185 | 0.0 | 0.0 | 0.00 | 0.00 | 0.00 | 28 | 1015.5 |
| 20260510072031 | 12 | 185 | 0.0 | 0.0 | 0.00 | 0.00 | 0.00 | 28 | 1015.4 |
| 20260510071529 | 11 | 185 | 0.0 | 0.0 | 0.00 | 0.00 | 0.00 | 28 | 1015.4 |
| 20260510071029 | 11 | 185 | 0.0 | 8.0 | 0.00 | 0.00 | 0.00 | 29 | 1015.3 |
| 20260510070528 | 11 | 185 | 1.6 | 9.7 | 0.00 | 0.00 | 0.00 | 29 | 1015.3 |
| 20260510070032 | 12 | 185 | 4.8 | 9.7 | 0.00 | 0.00 | 0.00 | 28 | 1015.3 |
| 20260510065526 | 12 | 185 | 0.0 | 3.2 | 0.00 | 0.00 | 0.00 | 28 | 1015.1 |
| 20260510065025 | 12 | 185 | 1.6 | 4.8 | 0.00 | 0.00 | 0.00 | 28 | 1015.0 |
| 20260510064524 | 11 | 185 | 1.6 | 6.4 | 0.00 | 0.00 | 0.00 | 28 | 1015.0 |
| 20260510064024 | 11 | 185 | 4.8 | 6.4 | 0.00 | 0.00 | 0.00 | 28 | 1015.0 |
| 20260510063526 | 10 | 185 | 3.2 | 4.8 | 0.00 | 0.00 | 0.00 | 28 | 1015.0 |
| 20260510063022 | 10 | 185 | 3.2 | 4.8 | 0.00 | 0.00 | 0.00 | 27 | 1015.0 |
| 20260510062520 | 11 | 185 | 3.2 | 6.4 | 0.00 | 0.00 | 0.00 | 27 | 1014.9 |
| 20260510062019 | 11 | 185 | 4.8 | 6.4 | 0.00 | 0.00 | 0.00 | 27 | 1015.0 |
| 20260510061518 | 10 | 185 | 4.8 | 6.4 | 0.00 | 0.00 | 0.00 | 27 | 1014.9 |
| 20260510061019 | 11 | 185 | 4.8 | 6.4 | 0.00 | 0.00 | 0.00 | 27 | 1014.8 |
| 20260510060518 | 11 | 185 | 4.8 | 6.4 | 0.00 | 0.00 | 0.00 | 26 | 1014.7 |
| 20260510060017 | 11 | 185 | 4.8 | 6.4 | 0.00 | 0.00 | 0.00 | 26 | 1014.7 |
| 20260510055517 | 11 | 185 | 6.4 | 6.4 | 0.00 | 0.00 | 0.00 | 26 | 1014.6 |
| 20260510055017 | 11 | 185 | 4.8 | 4.8 | 0.00 | 0.00 | 0.00 | 25 | 1014.4 |
| 20260510054516 | 11 | 185 | 4.8 | 6.4 | 0.00 | 0.00 | 0.00 | 25 | 1014.4 |
| 20260510054016 | 12 | 185 | 4.8 | 6.4 | 0.00 | 0.00 | 0.00 | 24 | 1014.4 |
| 20260510053515 | 12 | 185 | 4.8 | 6.4 | 0.00 | 0.00 | 0.00 | 24 | 1014.2 |
| 20260510053042 | 13 | 185 | 3.2 | 4.8 | 0.00 | 0.00 | 0.00 | 23 | 1014.2 |
| 20260510052515 | 13 | 185 | 3.2 | 6.4 | 0.00 | 0.00 | 0.00 | 22 | 1014.2 |
| 20260510052017 | 14 | 185 | 4.8 | 11.3 | 0.00 | 0.00 | 0.00 | 22 | 1014.2 |
| 20260510051515 | 15 | 185 | 8.0 | 11.3 | 0.00 | 0.00 | 0.00 | 21 | 1014.1 |
| 20260510051015 | 15 | 185 | 8.0 | 12.9 | 0.00 | 0.00 | 0.00 | 21 | 1014.0 |
| 20260510050514 | 15 | 185 | 9.7 | 12.9 | 0.00 | 0.00 | 0.00 | 21 | 1014.0 |
| 20260510050015 | 14 | 185 | 6.4 | 9.7 | 0.00 | 0.00 | 0.00 | 22 | 1013.9 |
| 20260510045514 | 14 | 185 | 6.4 | 9.7 | 0.00 | 0.00 | 0.00 | 22 | 1013.9 |
| 20260510045114 | 14 | 185 | 6.4 | 8.0 | 0.00 | 0.00 | 0.00 | 22 | 1013.8 |
| 20260510044514 | 15 | 185 | 4.8 | 12.9 | 0.00 | 0.00 | 0.00 | 21 | 1013.9 |
| 20260510044014 | 16 | 185 | 4.8 | 16.1 | 0.00 | 0.00 | 0.00 | 19 | 1013.9 |
| 20260510043514 | 17 | 185 | 11.3 | 16.1 | 0.00 | 0.00 | 0.00 | 19 | 1013.8 |
| 20260510043019 | 17 | 185 | 12.9 | 16.1 | 0.00 | 0.00 | 0.00 | 20 | 1013.7 |
| 20260510042513 | 17 | 185 | 9.7 | 12.9 | 0.00 | 0.00 | 0.00 | 21 | 1013.8 |
| 20260510042015 | 17 | 185 | 9.7 | 12.9 | 0.00 | 0.00 | 0.00 | 21 | 1013.9 |
| 20260510041521 | 17 | 185 | 4.8 | 11.3 | 0.00 | 0.00 | 0.00 | 21 | 1013.8 |
| 20260510041012 | 17 | 185 | 8.0 | 11.3 | 0.00 | 0.00 | 0.00 | 21 | 1013.9 |
| 20260510040512 | 17 | 185 | 6.4 | 8.0 | 0.00 | 0.00 | 0.00 | 21 | 1013.8 |
| 20260510040021 | 18 | 185 | 4.8 | 9.7 | 0.00 | 0.00 | 0.00 | 19 | 1013.8 |
| 20260510035511 | 20 | 185 | 6.4 | 11.3 | 0.00 | 0.00 | 0.00 | 18 | 1013.9 |
| 20260510035013 | 21 | 185 | 8.0 | 11.3 | 0.00 | 0.00 | 0.00 | 17 | 1013.9 |
| 20260510034512 | 21 | 185 | 0.0 | 11.3 | 0.00 | 0.00 | 0.00 | 17 | 1013.8 |
| 20260510034013 | 21 | 185 | 6.4 | 33.8 | 0.00 | 0.00 | 0.00 | 17 | 1013.9 |
| 20260510033511 | 21 | 185 | 3.2 | 33.8 | 0.00 | 0.00 | 0.00 | 17 | 1013.9 |
| 20260510033010 | 21 | 185 | 9.7 | 17.7 | 0.00 | 0.00 | 0.00 | 18 | 1013.9 |
| 20260510032514 | 20 | 185 | 4.8 | 14.5 | 0.00 | 0.00 | 0.00 | 19 | 1013.9 |
| 20260510032010 | 20 | 185 | 8.0 | 14.5 | 0.00 | 0.00 | 0.00 | 19 | 1013.9 |
| 20260510031511 | 20 | 185 | 6.4 | 16.1 | 0.00 | 0.00 | 0.00 | 18 | 1013.9 |
| 20260510031010 | 21 | 185 | 12.9 | 22.5 | 0.00 | 0.00 | 0.00 | 17 | 1013.7 |
| 20260510030510 | 21 | 185 | 12.9 | 25.7 | 0.00 | 0.00 | 0.00 | 17 | 1013.6 |
| 20260510030010 | 21 | 185 | 17.7 | 25.7 | 0.00 | 0.00 | 0.00 | 17 | 1013.5 |
| 20260510025510 | 21 | 185 | 17.7 | 29.0 | 0.00 | 0.00 | 0.00 | 17 | 1013.3 |
| 20260510025010 | 21 | 185 | 17.7 | 29.0 | 0.00 | 0.00 | 0.00 | 17 | 1013.2 |
| 20260510024509 | 22 | 185 | 17.7 | 24.1 | 0.00 | 0.00 | 0.00 | 16 | 1013.2 |
| 20260510024014 | 22 | 185 | 14.5 | 29.0 | 0.00 | 0.00 | 0.00 | 15 | 1013.1 |
| 20260510023510 | 23 | 185 | 16.1 | 35.4 | 0.00 | 0.00 | 0.00 | 15 | 1012.9 |
| 20260510023009 | 22 | 185 | 25.7 | 35.4 | 0.00 | 0.00 | 0.00 | 16 | 1012.9 |
| 20260510022509 | 22 | 185 | 17.7 | 24.1 | 0.00 | 0.00 | 0.00 | 16 | 1013.0 |
| 20260510022009 | 22 | 185 | 16.1 | 22.5 | 0.00 | 0.00 | 0.00 | 16 | 1012.9 |
| 20260510021521 | 22 | 185 | 19.3 | 22.5 | 0.00 | 0.00 | 0.00 | 16 | 1012.8 |
| 20260510021008 | 21 | 185 | 16.1 | 20.9 | 0.00 | 0.00 | 0.00 | 16 | 1012.8 |
| 20260510020508 | 21 | 185 | 11.3 | 17.7 | 0.00 | 0.00 | 0.00 | 15 | 1012.7 |
| 20260510020008 | 22 | 185 | 9.7 | 16.1 | 0.00 | 0.00 | 0.00 | 15 | 1012.7 |
| 20260510015508 | 22 | 185 | 12.9 | 16.1 | 0.00 | 0.00 | 0.00 | 14 | 1012.6 |
| 20260510015008 | 22 | 185 | 9.7 | 14.5 | 0.00 | 0.00 | 0.00 | 14 | 1012.6 |
| 20260510014508 | 22 | 185 | 6.4 | 11.3 | 0.00 | 0.00 | 0.00 | 14 | 1012.5 |
| 20260510014008 | 23 | 185 | 8.0 | 11.3 | 0.00 | 0.00 | 0.00 | 13 | 1012.5 |
| 20260510013509 | 23 | 185 | 0.0 | 12.9 | 0.00 | 0.00 | 0.00 | 13 | 1012.4 |
| 20260510013007 | 24 | 185 | 4.8 | 19.3 | 0.00 | 0.00 | 0.00 | 12 | 1012.3 |
| 20260510012507 | 24 | 185 | 1.6 | 19.3 | 0.00 | 0.00 | 0.00 | 12 | 1012.3 |
| 20260510012007 | 24 | 185 | 3.2 | 16.1 | 0.00 | 0.00 | 0.00 | 12 | 1012.2 |
| 20260510011507 | 24 | 185 | 8.0 | 24.1 | 0.00 | 0.00 | 0.00 | 12 | 1012.3 |
| 20260510011007 | 24 | 185 | 17.7 | 24.1 | 0.00 | 0.00 | 0.00 | 11 | 1012.1 |
| 20260510010507 | 24 | 185 | 17.7 | 25.7 | 0.00 | 0.00 | 0.00 | 11 | 1012.0 |
| 20260510010006 | 25 | 185 | 17.7 | 25.7 | 0.00 | 0.00 | 0.00 | 11 | 1012.1 |
| 20260510005509 | 25 | 185 | 14.5 | 20.9 | 0.00 | 0.00 | 0.00 | 11 | 1012.1 |
| 20260510005008 | 25 | 185 | 8.0 | 19.3 | 0.00 | 0.00 | 0.00 | 10 | 1012.1 |
| 20260510004506 | 25 | 185 | 9.7 | 19.3 | 0.00 | 0.00 | 0.00 | 10 | 1012.1 |
| 20260510004006 | 25 | 185 | 12.9 | 20.9 | 0.00 | 0.00 | 0.00 | 10 | 1012.1 |
| 20260510003506 | 24 | 185 | 14.5 | 27.4 | 0.00 | 0.00 | 0.00 | 10 | 1012.1 |
| 20260510003006 | 25 | 185 | 19.3 | 27.4 | 0.00 | 0.00 | 0.00 | 10 | 1012.0 |
| 20260510002506 | 25 | 185 | 19.3 | 29.0 | 0.00 | 0.00 | 0.00 | 10 | 1011.9 |
| 20260510002008 | 25 | 185 | 20.9 | 29.0 | 0.00 | 0.00 | 0.00 | 10 | 1012.0 |
| 20260510001508 | 25 | 185 | 12.9 | 24.1 | 0.00 | 0.00 | 0.00 | 10 | 1012.0 |
| 20260510001005 | 25 | 185 | 14.5 | 27.4 | 0.00 | 0.00 | 0.00 | 9 | 1012.1 |
| 20260510000504 | 25 | 185 | 19.3 | 33.8 | 0.00 | 0.00 | 0.00 | 9 | 1012.0 |
| 20260510000004 | 25 | 185 | 25.7 | 33.8 | 0.00 | 0.00 | 0.00 | 10 | 1011.9 |
| 20260509235505 | 26 | 185 | 24.1 | 33.8 | 0.00 | 0.00 | 0.00 | 9 | 1011.8 |
| 20260509235005 | 26 | 185 | 20.9 | 33.8 | 0.00 | 0.00 | 0.00 | 9 | 1011.9 |
| 20260509234503 | 26 | 185 | 11.3 | 19.3 | 0.00 | 0.00 | 0.00 | 9 | 1012.1 |
| 20260509234003 | 26 | 185 | 12.9 | 25.7 | 0.00 | 0.00 | 0.00 | 9 | 1012.1 |
| 20260509233502 | 26 | 185 | 14.5 | 33.8 | 0.00 | 0.00 | 0.00 | 9 | 1012.2 |
| 20260509233001 | 26 | 185 | 16.1 | 33.8 | 0.00 | 0.00 | 0.00 | 9 | 1012.2 |
| 20260509232501 | 27 | 185 | 16.1 | 35.4 | 0.00 | 0.00 | 0.00 | 9 | 1012.2 |
| 20260509232000 | 27 | 185 | 22.5 | 35.4 | 0.00 | 0.00 | 0.00 | 8 | 1012.2 |
| 20260509231601 | 27 | 185 | 24.1 | 30.6 | 0.00 | 0.00 | 0.00 | 8 | 1012.1 |